sat.trackr.live / text

‹ back to catalog

STARLINK-6064

NORAD 56805 · 2023-078AQ

PAYLOAD ACTIVE UNKNOWN

§ Identity

Operator
Country
US
Launch date
2023-05-31
Launch site
AFWTR
Launch vehicle
Mass (kg)
RCS (m²)

Purposes: comms

External: N2YO · Heavens-Above · Gunter

§ Orbital elements

Epoch: 2026-05-25T02:57:22.968000Z

Period
96.11 min
Inclination
69.9988°
Eccentricity
0.0003740
Mean motion
14.98324375 rev/d
Perigee alt
569.5 km
Apogee alt
574.7 km
Semi-major
6,950.2 km
B*
1.5300e-4
RAAN
131.6940°
Arg perigee
263.2997°
Mean anomaly
96.7737°
Rev number
16,462

§ Raw data

STARLINK-60641 56805U 23078AQ  26145.12318250  .00001733  00000+0  15300-3 0  99992 56805  69.9988 131.6940 0003740 263.2997  96.7737 14.98324375164625

JSON: /api/v1/satellites/56805 · /tle

For live sub-satellite position, see the globe view (requires WebGL).

§ Visibility from observer

Set your observer location to see the next 7 days of passes ≥ 10°. The values pass through the URL so the page stays shareable.

No JS? Fill the form by hand. The geolocation button needs JavaScript.